Location: Hilton Head Island
(32.2163°N, 80.7526°W)
Time: 11:38:23
(UTC-04:00)

S-56A Canister/Altair - Pass Details

Date: 20 February 2026
Orbit: 633 x 2484 km, 38.9° (Epoch: 10 March)

Event Time Altitude Azimuth Distance (km) Brightness Sun altitude
Exits shadow 02:41:25 27° 88° (E) 2,817 10.5 -54.2°
Drops below altitude 10° 02:46:18 10° 96° (E) 4,308 11.6 -53.3°
Sets 02:50:27 0° 99° (E) 5,567 12.4 -52.6°
